This is the latest recevied weather packets stored in our database for station/object HB9TJM-8. If no packets are shown the sender has not sent any weather packets the latest 10 day(s).
| Time | Temp. | Humidity | Pressure | Rain* | Wind** | Luminosity | Snow |
|---|---|---|---|---|---|---|---|
| 1777651648 | 18.33° C | 49% | 1022.6 hPa | 0 mm | - | 85 W/m² | - |
| 1777651341 | 18.33° C | 48% | 1023 hPa | 0 mm | - | 63 W/m² | - |
| 1777651033 | 18.33° C | 48% | 1023 hPa | 0 mm | - | 64 W/m² | - |
| 1777650726 | 18.33° C | 47% | 1022.7 hPa | 0 mm | - | 65 W/m² | - |
| 1777650418 | 18.33° C | 47% | 1022.7 hPa | 0 mm | - | 68 W/m² | - |
| 1777650111 | 18.33° C | 47% | 1022.8 hPa | 0 mm | - | 67 W/m² | - |
| 1777649804 | 18.33° C | 48% | 1022.8 hPa | 0 mm | - | 108 W/m² | - |
| 1777649496 | 18.33° C | 47% | 1023.1 hPa | 0 mm | - | 70 W/m² | - |
| 1777649189 | 18.33° C | 48% | 1023 hPa | 0 mm | - | 114 W/m² | - |
| 1777648881 | 18.33° C | 48% | 1023 hPa | 0 mm | - | 95 W/m² | - |
| 1777648266 | 18.89° C | 48% | 1022.9 hPa | 0 mm | - | 180 W/m² | - |
| 1777647959 | 18.89° C | 47% | 1023 hPa | 0 mm | - | 469 W/m² | - |
| 1777647652 | 18.89° C | 46% | 1022.9 hPa | 0 mm | - | 486 W/m² | - |
| 1777647344 | 18.89° C | 48% | 1023.6 hPa | 0 mm | - | 506 W/m² | - |
| 1777647036 | 18.89° C | 47% | 1023.3 hPa | 0 mm | - | 519 W/m² | - |
| 1777646728 | 18.89° C | 46% | 1023 hPa | 0 mm | - | 534 W/m² | - |
| 1777646420 | 19.44° C | 46% | 1023 hPa | 0 mm | - | 553 W/m² | - |
| 1777646113 | 19.44° C | 45% | 1023.5 hPa | 0 mm | - | 567 W/m² | - |
| 1777645805 | 18.89° C | 46% | 1023.3 hPa | 0 mm | - | 579 W/m² | - |
| 1777645498 | 19.44° C | 47% | 1023.3 hPa | 0 mm | - | 590 W/m² | - |
| 1777644883 | 19.44° C | 46% | 1023.6 hPa | 0 mm | - | 623 W/m² | - |
| 1777644575 | 19.44° C | 47% | 1023.3 hPa | 0 mm | - | 632 W/m² | - |
| 1777644268 | 18.89° C | 48% | 1023.4 hPa | 0 mm | - | 646 W/m² | - |
| 1777643961 | 18.89° C | 46% | 1023.4 hPa | 0 mm | - | 658 W/m² | - |
| 1777643653 | 18.89° C | 47% | 1023.6 hPa | 0 mm | - | 670 W/m² | - |
* Rain latest hour (hover to see other rain measurements)
** Current wind speed in m/s (hover to see current wind gust speed)